When you browse on this site, cookies collect data to enhance your experience and personalize the content and advertising you see.
Visit our Privacy Policy to learn more. By continuing to use the site, you agree to this use of cookies and data.
  • In Latvia
  • List of Countries
  • For 7 days
  • Water Temperature
  • Weather Map
  • Weather Widgets
  • user-avatar
    Login

    Hourly Weather Raleigh

    Today, 18 August, Sunday

    Time Temperature Precipitation Wind Pressure Humidity
    00:00 +25°C° 0 mm 1 mps 752 mmHg 91%
    01:00 +22°C° 0 mm 0 mps 753 mmHg 86%
    02:00 +22°C° 0 mm 0 mps 752 mmHg 87%
    03:00 +22°C° 0 mm 0 mps 752 mmHg 88%
    04:00 +22°C° 0 mm 0 mps 752 mmHg 88%
    05:00 +24°C° 0 mm 1 mps 752 mmHg 87%
    06:00 +25°C° 0 mm 1 mps 752 mmHg 86%
    07:00 +26°C° 0 mm 1 mps 753 mmHg 84%
    08:00 +28°C° 0 mm 1 mps 753 mmHg 77%
    09:00 +28°C° 0 mm 0 mps 753 mmHg 70%
    10:00 +30°C° 0 mm 0 mps 753 mmHg 63%
    11:00 +33°C° 0 mm 1 mps 753 mmHg 57%
    12:00 +35°C° 0 mm 1 mps 753 mmHg 52%
    13:00 +36°C° 0 mm 1 mps 753 mmHg 46%
    14:00 +36°C° 0 mm 1 mps 753 mmHg 46%
    15:00 +36°C° 0 mm 1 mps 752 mmHg 46%
    16:00 +36°C° 0 mm 1 mps 752 mmHg 45%
    17:00 +35°C° 0 mm 2 mps 752 mmHg 52%
    18:00 +32°C° 0 mm 2 mps 752 mmHg 59%
    19:00 +30°C° 0 mm 2 mps 752 mmHg 65%
    20:00 +30°C° 0.1 mm 2 mps 752 mmHg 67%
    21:00 +29°C° 0.1 mm 2 mps 752 mmHg 69%
    22:00 +28°C° 0.1 mm 2 mps 753 mmHg 71%
    23:00 +27°C° 0.8 mm 2 mps 753 mmHg 76%

    Tomorrow, 19 August, Monday

    Time Temperature Precipitation Wind Pressure Humidity
    00:00 +27°C° 0.8 mm 2 mps 753 mmHg 80%
    01:00 +26°C° 0.8 mm 2 mps 753 mmHg 84%
    02:00 +26°C° 0.2 mm 2 mps 753 mmHg 85%
    03:00 +25°C° 0.2 mm 2 mps 752 mmHg 86%
    04:00 +25°C° 0.2 mm 2 mps 752 mmHg 88%
    05:00 +26°C° 0 mm 1 mps 753 mmHg 87%
    06:00 +26°C° 0 mm 1 mps 753 mmHg 86%
    07:00 +27°C° 0 mm 1 mps 753 mmHg 85%
    08:00 +29°C° 0 mm 1 mps 754 mmHg 76%
    09:00 +31°C° 0 mm 1 mps 754 mmHg 67%
    10:00 +33°C° 0 mm 1 mps 754 mmHg 57%
    11:00 +34°C° 0.3 mm 1 mps 754 mmHg 53%
    12:00 +36°C° 0.3 mm 2 mps 753 mmHg 49%
    13:00 +37°C° 0.3 mm 2 mps 753 mmHg 44%
    14:00 +37°C° 0 mm 2 mps 753 mmHg 46%
    15:00 +36°C° 0 mm 3 mps 753 mmHg 48%
    16:00 +36°C° 0 mm 3 mps 752 mmHg 50%
    17:00 +34°C° 0.1 mm 2 mps 753 mmHg 57%
    18:00 +31°C° 0.1 mm 2 mps 753 mmHg 63%
    19:00 +29°C° 0.1 mm 2 mps 753 mmHg 70%
    20:00 +29°C° 0.1 mm 2 mps 753 mmHg 73%
    21:00 +28°C° 0.1 mm 2 mps 754 mmHg 76%
    22:00 +27°C° 0.1 mm 2 mps 754 mmHg 79%
    23:00 +27°C° 0.5 mm 2 mps 754 mmHg 82%

    Day after tomorrow, 20 August, Tuesday

    Time Temperature Precipitation Wind Pressure Humidity
    00:00 +27°C° 0.5 mm 1 mps 754 mmHg 85%
    01:00 +26°C° 0.5 mm 1 mps 754 mmHg 88%
    02:00 +26°C° 0.4 mm 1 mps 754 mmHg 89%
    03:00 +25°C° 0.4 mm 1 mps 754 mmHg 90%
    04:00 +25°C° 0.4 mm 1 mps 754 mmHg 91%
    05:00 +26°C° 0 mm 2 mps 754 mmHg 90%
    06:00 +26°C° 0 mm 2 mps 755 mmHg 90%
    07:00 +26°C° 0 mm 2 mps 755 mmHg 89%
    08:00 +28°C° 0 mm 2 mps 755 mmHg 81%
    09:00 +30°C° 0 mm 3 mps 755 mmHg 74%
    10:00 +31°C° 0 mm 3 mps 756 mmHg 66%
    11:00 +33°C° 0 mm 3 mps 755 mmHg 62%
    12:00 +34°C° 0 mm 3 mps 755 mmHg 58%
    13:00 +35°C° 0 mm 3 mps 755 mmHg 55%
    14:00 +35°C° 0 mm 3 mps 754 mmHg 55%
    15:00 +35°C° 0 mm 3 mps 754 mmHg 55%
    16:00 +35°C° 0 mm 3 mps 754 mmHg 55%
    17:00 +34°C° 0 mm 3 mps 754 mmHg 58%
    18:00 +31°C° 0 mm 3 mps 754 mmHg 62%
    19:00 +30°C° 0 mm 3 mps 754 mmHg 66%
    20:00 +29°C° 0 mm 3 mps 754 mmHg 69%
    21:00 +29°C° 0 mm 3 mps 754 mmHg 72%
    22:00 +28°C° 0 mm 3 mps 755 mmHg 75%
    23:00 +27°C° 0 mm 3 mps 754 mmHg 74%

    21 August, Wednesday

    Time Temperature Precipitation Wind Pressure Humidity
    00:00 +26°C° 0 mm 3 mps 754 mmHg 74%
    01:00 +26°C° 0 mm 2 mps 754 mmHg 74%
    02:00 +25°C° 0 mm 2 mps 754 mmHg 75%
    03:00 +25°C° 0 mm 2 mps 754 mmHg 76%
    04:00 +25°C° 0 mm 2 mps 754 mmHg 77%
    05:00 +25°C° 0 mm 2 mps 754 mmHg 78%
    06:00 +25°C° 0 mm 2 mps 754 mmHg 79%
    07:00 +25°C° 0 mm 2 mps 754 mmHg 79%
    08:00 +26°C° 0 mm 2 mps 754 mmHg 80%
    09:00 +26°C° 0 mm 2 mps 754 mmHg 80%
    10:00 +26°C° 0 mm 2 mps 754 mmHg 81%
    11:00 +27°C° 0 mm 2 mps 753 mmHg 78%
    12:00 +28°C° 0 mm 3 mps 753 mmHg 75%
    13:00 +29°C° 0 mm 3 mps 752 mmHg 71%
    14:00 +30°C° 0.1 mm 3 mps 752 mmHg 67%
    15:00 +31°C° 0.1 mm 3 mps 752 mmHg 63%
    16:00 +33°C° 0.1 mm 4 mps 751 mmHg 59%
    17:00 +30°C° 0.4 mm 3 mps 751 mmHg 66%
    18:00 +29°C° 0.4 mm 3 mps 751 mmHg 72%
    19:00 +27°C° 0.4 mm 3 mps 751 mmHg 79%
    20:00 +27°C° 0 mm 3 mps 751 mmHg 81%
    21:00 +26°C° 0 mm 3 mps 751 mmHg 83%
    22:00 +26°C° 0 mm 3 mps 751 mmHg 85%
    23:00 +25°C° 0 mm 3 mps 751 mmHg 87%

    22 August, Thursday

    Time Temperature Precipitation Wind Pressure Humidity
    00:00 +25°C° 0 mm 2 mps 751 mmHg 89%
    01:00 +25°C° 0 mm 2 mps 751 mmHg 91%
    02:00 +24°C° 0.1 mm 2 mps 750 mmHg 92%
    03:00 +24°C° 0.1 mm 2 mps 750 mmHg 93%
    04:00 +24°C° 0.1 mm 2 mps 750 mmHg 95%
    05:00 +25°C° 0 mm 2 mps 750 mmHg 92%
    06:00 +25°C° 0 mm 2 mps 750 mmHg 90%
    07:00 +26°C° 0 mm 3 mps 751 mmHg 88%
    08:00 +27°C° 0 mm 3 mps 751 mmHg 80%
    09:00 +29°C° 0 mm 3 mps 751 mmHg 73%
    10:00 +30°C° 0 mm 3 mps 751 mmHg 65%
    11:00 +33°C° 0 mm 3 mps 750 mmHg 61%
    12:00 +34°C° 0 mm 3 mps 750 mmHg 57%
    13:00 +36°C° 0 mm 3 mps 750 mmHg 52%
    14:00 +36°C° 0 mm 4 mps 749 mmHg 52%
    15:00 +36°C° 0 mm 4 mps 749 mmHg 51%
    16:00 +36°C° 0 mm 4 mps 749 mmHg 51%
    17:00 +34°C° 0.5 mm 4 mps 749 mmHg 59%
    18:00 +32°C° 0.5 mm 5 mps 749 mmHg 66%
    19:00 +29°C° 0.5 mm 5 mps 749 mmHg 73%
    20:00 +28°C° 3.2 mm 4 mps 750 mmHg 79%
    21:00 +27°C° 3.2 mm 2 mps 750 mmHg 84%
    22:00 +25°C° 3.2 mm 1 mps 751 mmHg 89%
    23:00 +25°C° 0.2 mm 1 mps 751 mmHg 90%

    23 August, Friday

    Time Temperature Precipitation Wind Pressure Humidity
    00:00 +25°C° 0.2 mm 1 mps 751 mmHg 91%
    01:00 +24°C° 0.2 mm 1 mps 751 mmHg 92%
    02:00 +24°C° 0 mm 1 mps 752 mmHg 93%
    03:00 +24°C° 0 mm 1 mps 752 mmHg 94%
    04:00 +23°C° 0 mm 2 mps 752 mmHg 95%
    05:00 +23°C° 0 mm 2 mps 752 mmHg 93%
    06:00 +24°C° 0 mm 3 mps 753 mmHg 91%
    07:00 +24°C° 0 mm 3 mps 753 mmHg 89%
    08:00 +25°C° 0 mm 3 mps 753 mmHg 80%
    09:00 +26°C° 0 mm 3 mps 754 mmHg 70%
    10:00 +27°C° 0 mm 3 mps 754 mmHg 61%
    11:00 +28°C° 0 mm 3 mps 754 mmHg 57%
    12:00 +29°C° 0 mm 3 mps 754 mmHg 53%
    13:00 +30°C° 0 mm 2 mps 754 mmHg 49%
    14:00 +30°C° 0 mm 2 mps 753 mmHg 50%
    15:00 +30°C° 0 mm 2 mps 753 mmHg 50%
    16:00 +30°C° 0 mm 3 mps 753 mmHg 50%
    17:00 +29°C° 0 mm 2 mps 753 mmHg 57%
    18:00 +27°C° 0 mm 2 mps 753 mmHg 63%
    19:00 +26°C° 0 mm 2 mps 753 mmHg 70%
    20:00 +25°C° 0 mm 2 mps 754 mmHg 71%
    21:00 +25°C° 0 mm 2 mps 754 mmHg 73%
    22:00 +24°C° 0 mm 2 mps 754 mmHg 75%
    23:00 +24°C° 0 mm 2 mps 754 mmHg 79%
    Show more